EW1931 Weather Reports


time (UTC)temp
C
wind
direction
speed
KPH
gust
KPH
rain 1hr
cm
rain 24hr
cm
rain mn
cm
humidity
%
barometer
mb
20260506061556 -2 68 4.8 6.4 0.00 0.00 0.00 54 933.9
20260506060117 -1 68 4.8 8.0 0.00 0.00 0.00 53 933.9
20260506044611 0 355 11.3 12.9 0.00 0.00 0.00 50 934.0
20260506043055 0 355 9.7 12.9 0.00 0.00 0.00 49 933.8
20260506041537 0 355 9.7 14.5 0.00 0.00 0.00 47 933.9
20260506040037 0 5 8.0 14.5 0.00 0.00 0.00 46 933.9
20260506034519 1 348 9.7 14.5 0.00 0.00 0.00 45 933.9
20260506033018 1 348 11.3 14.5 0.00 0.00 0.00 44 933.9
20260506031600 2 341 9.7 14.5 0.00 0.00 0.00 43 933.9
20260506030058 3 360 9.7 14.5 0.00 0.00 0.00 40 933.7
20260506024553 5 342 9.7 17.7 0.00 0.00 0.00 38 933.6
20260506023044 6 360 11.3 19.3 0.00 0.00 0.00 36 933.5
20260506021542 6 13 11.3 17.7 0.00 0.00 0.00 34 933.3
20260506020041 7 21 20.9 27.4 0.00 0.00 0.00 33 933.2
20260506014641 8 346 14.5 27.4 0.00 0.00 0.00 32 933.2
20260506013039 8 342 20.9 29.0 0.00 0.00 0.00 30 933.1
20260506011538 8 326 24.1 35.4 0.00 0.00 0.00 31 933.1
20260506010038 8 348 24.1 33.8 0.00 0.00 0.00 30 932.9
20260506004519 8 360 17.7 29.0 0.00 0.00 0.00 32 932.8
20260506003019 9 5 20.9 32.2 0.00 0.00 0.00 32 932.8
20260506001501 9 14 16.1 41.8 0.00 0.00 0.00 31 932.8
20260506000001 9 24 19.3 41.8 0.00 0.00 0.00 31 932.7
20260505234548 10 17 25.7 35.4 0.00 0.00 0.00 32 932.7
20260505233042 9 360 27.4 41.8 0.00 0.00 0.00 32 932.7
20260505231524 10 19 25.7 43.5 0.00 0.00 0.00 31 932.7
20260505230044 10 347 24.1 35.4 0.00 0.00 0.00 31 932.5
20260505224505 10 347 32.2 43.5 0.00 0.00 0.00 30 932.5
20260505223004 10 5 24.1 40.2 0.00 0.00 0.00 31 932.5
20260505221546 10 342 20.9 38.6 0.00 0.00 0.00 33 932.5
20260505220044 9 340 27.4 40.2 0.00 0.00 0.00 32 932.6
20260505214527 11 347 30.6 43.5 0.00 0.00 0.00 31 932.6
20260505213025 10 348 29.0 45.1 0.00 0.00 0.00 33 932.6
20260505211512 10 5 24.1 38.6 0.00 0.00 0.00 33 932.7
20260505210008 9 338 25.7 38.6 0.00 0.00 0.00 35 932.6
20260505204550 9 346 19.3 41.8 0.00 0.00 0.00 34 932.6
20260505203047 8 360 24.1 45.1 0.00 0.00 0.00 34 932.7
20260505201529 9 10 25.7 38.6 0.00 0.00 0.00 33 932.8
20260505200029 8 355 20.9 45.1 0.00 0.00 0.00 33 932.8
20260505194611 8 360 20.9 43.5 0.00 0.00 0.00 36 932.6
20260505193010 8 355 22.5 40.2 0.00 0.00 0.00 37 932.6
20260505191608 8 360 29.0 40.2 0.00 0.00 0.00 39 932.7
20260505191505 8 30 27.4 40.2 0.00 0.00 0.00 39 932.8
20260505190050 8 19 25.7 35.4 0.00 0.00 0.00 38 932.6
20260505184530 8 24 17.7 35.4 0.00 0.00 0.00 40 932.6
20260505183035 8 348 16.1 25.7 0.00 0.00 0.00 39 932.6
20260505181508 7 40 17.7 35.4 0.00 0.00 0.00 41 932.8
20260505180017 7 344 19.3 33.8 0.00 0.00 0.00 43 932.7
20260505174555 7 360 19.3 35.4 0.00 0.00 0.00 44 932.8
20260505173048 7 11 17.7 30.6 0.00 0.00 0.00 45 932.8
20260505171532 7 347 14.5 27.4 0.00 0.00 0.00 45 933.0
20260505170027 6 40 16.1 33.8 0.00 0.00 0.00 47 933.1
20260505164510 7 351 17.7 29.0 0.00 0.00 0.00 46 933.0
20260505163009 6 325 14.5 25.7 0.00 0.00 0.00 48 933.1
20260505161553 6 327 14.5 30.6 0.00 0.00 0.00 48 933.1
20260505153028 5 24 9.7 25.7 0.00 0.00 0.00 50 933.1
20260505151507 4 360 12.9 24.1 0.00 0.00 0.00 52 933.0
20260505124521 1 349 12.9 17.7 0.00 0.00 0.00 63 932.2
20260505123029 0 326 14.5 19.3 0.00 0.00 0.00 65 932.2
20260505121501 0 340 14.5 17.7 0.00 0.00 0.00 68 932.0
20260505120059 0 342 9.7 12.9 0.00 0.00 0.00 66 931.9
20260505114559 0 5 6.4 14.5 0.00 0.00 0.00 65 931.8
20260505113039 0 351 8.0 12.9 0.00 0.00 0.00 65 931.7
20260505111533 0 333 9.7 12.9 0.00 0.00 0.00 64 931.6
20260505101601 2 334 6.4 9.7 0.00 0.00 0.00 59 931.6
20260505100052 2 329 6.4 9.7 0.00 0.00 0.00 60 931.6
20260505094531 2 355 4.8 9.7 0.00 0.00 0.00 60 931.5
20260505093006 2 348 6.4 8.0 0.00 0.00 0.00 59 931.3
20260505091505 2 348 6.4 9.7 0.00 0.00 0.00 59 931.4
20260505090048 2 355 8.0 9.7 0.00 0.00 0.00 59 931.3
20260505084547 2 348 8.0 11.3 0.00 0.00 0.00 59 931.4
20260505083026 2 346 8.0 9.7 0.00 0.00 0.00 58 931.2
20260505081527 2 348 6.4 11.3 0.00 0.00 0.00 58 931.2
20260505080008 2 344 8.0 11.3 0.00 0.00 0.00 57 931.0
20260505074509 2 337 3.2 9.7 0.00 0.00 0.00 57 931.1
20260505073050 3 341 8.0 12.9 0.00 0.00 0.00 56 930.9
20260505071554 2 349 6.4 9.7 0.00 0.00 0.00 56 931.0
20260505070031 3 11 8.0 11.3 0.00 0.00 0.00 56 931.1
20260505064529 3 26 6.4 8.0 0.00 0.00 0.00 55 931.1
20260505063011 3 26 4.8 6.4 0.00 0.00 0.00 54 930.9